Weather History for Key West, FL

Change the Weather History Date:

Sunday, March 24, 2013

  Actual Average Record
Temperature  
Mean Temperature 80 °F 74 °F  
Max Temperature 84 °F 79 °F 88 °F (1994)
Min Temperature 76 °F 69 °F 57 °F (1968)
Degree Days  
Heating Degree Days 0 0  
Month to date heating degree days 12 0  
Since 1 July heating degree days 24 66  
Cooling Degree Days 15 9  
Month to date cooling degree days 133 198  
Year to date cooling degree days 667 546  
Growing Degree Days 30 (Base 50)    
Moisture  
Dew Point 73 °F    
Average Humidity 82    
Maximum Humidity 94    
Minimum Humidity 69    
Precipitation  
Precipitation 0.00 in 0.04 in 1.18 in (1983)
Month to date precipitation 1.46 1.62  
Year to date precipitation 3.00 5.15  
Snow  
Snow 0.00 in - - ()
Month to date snowfall 0.0  
Since 1 July snowfall 0.0  
Snow Depth 0.00 in    
Sea Level Pressure  
Sea Level Pressure 29.81 in    
Wind  
Wind Speed 11 mph (SSW)    
Max Wind Speed 21 mph    
Max Gust Speed 26 mph    
Visibility 9 miles    
Events      
T = Trace of Precipitation, MM = Missing Value Source: NWS Daily Summary

Daily Weather History Graph

Daily Weather History Graph

Search for Another Location

Airport:

Trip Planner

Search our weather history database for the weather conditions in past years. The results will help you decide how hot, cold, wet, or windy it might be!

Date:

Astronomy

Mar. 24, 2013 Rise Set
Actual Time 7:26 AM EDT 7:39 PM EDT
Civil Twilight 7:03 AM EDT 8:02 PM EDT
Nautical Twilight 6:37 AM EDT 8:29 PM EDT
Astronomical Twilight 6:10 AM EDT 8:56 PM EDT
Moon 5:19 PM EDT (3/24) 5:20 AM EDT (3/24)
Length of Visible Light 12h 58m
Length of Day
12h 13m
Waxing Gibbous, 91% of the Moon is Illuminated
Mar 24
Waxing Gibbous
Mar 27
Full
Apr 3
Last Quarter
Apr 10
New
Apr 18
First Quarter

Hourly Weather History & Observations

Time (EDT) Temp. Heat Index Dew Point Humidity Pressure Visibility Wind Dir Wind Speed Gust Speed Precip Events Conditions
12:53 AM 78.1 °F - 72.0 °F 81% 29.88 in 10.0 mi South 9.2 mph - N/A   Clear
1:53 AM 77.0 °F - 73.0 °F 88% 29.87 in 10.0 mi South 9.2 mph - N/A   Clear
2:53 AM 77.0 °F - 73.0 °F 88% 29.85 in 10.0 mi South 10.4 mph - N/A   Clear
3:53 AM 77.0 °F - 73.0 °F 88% 29.83 in 9.0 mi South 10.4 mph - N/A   Clear
4:53 AM 75.9 °F - 73.0 °F 91% 29.83 in 9.0 mi South 10.4 mph - N/A   Clear
5:53 AM 75.9 °F - 73.0 °F 91% 29.82 in 9.0 mi SSE 11.5 mph - N/A   Scattered Clouds
6:07 AM 75.2 °F - 73.4 °F 94% 29.82 in 9.0 mi SSE 11.5 mph - N/A   Mostly Cloudy
6:14 AM 75.2 °F - 73.4 °F 94% 29.81 in 9.0 mi SSE 11.5 mph - N/A   Scattered Clouds
6:53 AM 75.9 °F - 73.0 °F 91% 29.82 in 9.0 mi SSE 12.7 mph - N/A   Clear
7:53 AM 75.9 °F - 73.9 °F 94% 29.82 in 8.0 mi SSE 11.5 mph - N/A   Clear
8:39 AM 77.0 °F - 73.4 °F 89% 29.82 in 8.0 mi South 13.8 mph - N/A   Mostly Cloudy
8:53 AM 77.0 °F - 73.9 °F 90% 29.82 in 8.0 mi South 15.0 mph - N/A   Mostly Cloudy
9:03 AM 77.0 °F - 73.4 °F 89% 29.81 in 9.0 mi SSE 15.0 mph - N/A   Scattered Clouds
9:53 AM 78.1 °F - 73.9 °F 87% 29.81 in 9.0 mi South 16.1 mph - N/A   Partly Cloudy
10:53 AM 79.0 °F - 73.9 °F 84% 29.81 in 9.0 mi South 18.4 mph - N/A   Clear
11:53 AM 80.1 °F 84.5 °F 73.9 °F 81% 29.81 in 9.0 mi South 19.6 mph - N/A   Clear
12:53 PM 80.1 °F 84.5 °F 73.9 °F 81% 29.78 in 10.0 mi South 17.3 mph - N/A   Clear
1:53 PM 82.0 °F 87.9 °F 73.9 °F 76% 29.80 in 10.0 mi WSW 12.7 mph - N/A   Clear
2:53 PM 82.0 °F 87.4 °F 73.0 °F 74% 29.78 in 10.0 mi WSW 10.4 mph - N/A   Clear
3:53 PM 82.0 °F 87.4 °F 73.0 °F 74% 29.74 in 10.0 mi SW 12.7 mph - N/A   Clear
4:53 PM 82.9 °F 88.8 °F 73.0 °F 72% 29.76 in 10.0 mi WSW 15.0 mph - N/A   Clear
5:53 PM 82.9 °F 88.0 °F 72.0 °F 69% 29.77 in 10.0 mi West 12.7 mph - N/A   Mostly Cloudy
6:53 PM 80.1 °F 84.5 °F 73.9 °F 81% 29.78 in 10.0 mi NW 10.4 mph - N/A   Mostly Cloudy
7:53 PM 80.6 °F 84.6 °F 71.6 °F 74% 29.77 in 10.0 mi West 5.8 mph - N/A   Clear
8:53 PM 79.0 °F - 73.9 °F 84% 29.80 in 10.0 mi NW 5.8 mph - N/A   Clear
9:53 PM 79.0 °F - 73.9 °F 84% 29.81 in 10.0 mi WNW 3.5 mph - N/A   Clear
10:53 PM 79.0 °F - 73.0 °F 82% 29.82 in 10.0 mi WSW 4.6 mph - N/A   Partly Cloudy
11:53 PM 79.0 °F - 73.0 °F 82% 29.82 in 10.0 mi SSW 3.5 mph - N/A   Partly Cloudy